sat.trackr.live / text

‹ back to catalog

UNKNOWN

NORAD 81844

UNKNOWN UNKNOWN UNKNOWN

§ Identity

Operator
Country
Launch date
Launch site
Launch vehicle
Mass (kg)
RCS (m²)

External: N2YO · Heavens-Above

§ Orbital elements

Epoch: 2026-05-23T10:54:26.786880Z

Period
100.36 min
Inclination
82.9099°
Eccentricity
0.0060159
Mean motion
14.34817576 rev/d
Perigee alt
732.6 km
Apogee alt
818.7 km
Semi-major
7,153.8 km
B*
1.6143e-3
RAAN
149.8549°
Arg perigee
19.0316°
Mean anomaly
341.3101°
Rev number
64,606

§ Raw data

UNKNOWN1 81844U          26143.45447670  .00004691  00000+0  16143-2 0  99942 81844  82.9099 149.8549 0060159  19.0316 341.3101 14.34817576646066

JSON: /api/v1/satellites/81844 · /tle

For live sub-satellite position, see the globe view (requires WebGL).

§ Visibility from observer

Set your observer location to see the next 7 days of passes ≥ 10°. The values pass through the URL so the page stays shareable.

No JS? Fill the form by hand. The geolocation button needs JavaScript.